1998-067LL

Last updated on May 25, 2017, 12:15 a.m. UTC

1 42703U 98067LL  17144.51176103  .00018669  00000-0  27923-3 0  9993
2 42703  51.6390 156.2603 0001495 139.2895 319.5883 15.55036286  1167

Satellite is not in orbit.